DW7601 San Vito IT current weather conditions

sailwx.info

Wind from 090 at 2 knots gusting 6

Air temperature 35.0° C
Dewpoint 19.4° C

Last reported at 2015-Jun-30 13:51 UTC.
Time now 2015-Jun-30 14:27 UTC

Location: N 39°27' E 009°32'.
View on Google Maps.

See reports from other nearby stations

  
Tides and Currents Weather Stations Pressure Air Temp Water Temp Dewpoint Dewpoint Depression Visibility Wind Speed Wind Dir Waves Ship Positions
date/time (UTC)wind fromknots sea level pressurealtimeterstation pressurevisibilityair tempwater tempwave heightnotes
2015-Jun-30 13:51 090 2 gusting 6 35.0
2015-Jun-30 13:41 135 4 gusting 8 34.4
2015-Jun-30 13:31 112 4 gusting 6 35.0
2015-Jun-30 13:21 112 4 gusting 6 35.0
2015-Jun-30 13:11 180 4 gusting 6 35.0
2015-Jun-30 13:01 090 3 gusting 6 35.0
2015-Jun-30 12:51 112 4 gusting 6 35.0
2015-Jun-30 12:41 068 4 gusting 7 35.0
2015-Jun-30 12:31 090 3 gusting 6 35.0
2015-Jun-30 12:21 068 2 gusting 6 35.0
2015-Jun-30 12:11 045 4 gusting 6 35.0
2015-Jun-30 12:01 090 4 gusting 6 35.0
2015-Jun-30 11:51 112 2 gusting 6 35.0
2015-Jun-30 11:41 090 4 gusting 6 35.0
2015-Jun-30 11:31 068 4 gusting 6 35.6
2015-Jun-30 11:21 090 4 gusting 6 35.0
2015-Jun-30 11:11 135 4 gusting 6 35.0
2015-Jun-30 11:01 112 4 gusting 6 34.4
2015-Jun-30 10:51 135 4 gusting 6 34.4
2015-Jun-30 10:41 112 4 gusting 6 33.9
2015-Jun-30 10:31 135 4 gusting 6 34.4
2015-Jun-30 10:21 135 2 gusting 5 33.9
2015-Jun-30 10:11 068 2 gusting 2 33.9
2015-Jun-30 10:01 180 2 gusting 5 33.3
2015-Jun-30 09:51 090 2 gusting 5 33.3
2015-Jun-30 09:41 090 2 gusting 5 33.3
2015-Jun-30 09:31 180 2 gusting 6 33.3
2015-Jun-30 09:21 112 2 gusting 6 32.8
2015-Jun-30 09:11 068 4 gusting 6 32.8
2015-Jun-30 09:01 135 3 gusting 5 32.2
2015-Jun-30 08:51 090 4 gusting 6 32.2
2015-Jun-30 08:41 112 2 gusting 5 32.2
2015-Jun-30 08:31 270 1 gusting 4 32.2
2015-Jun-30 08:21 135 1 gusting 2 32.2
2015-Jun-30 08:11 112 1 gusting 4 31.7
2015-Jun-30 08:01 090 0 gusting 1 31.7
2015-Jun-30 07:51 112 0 gusting 1 31.1
2015-Jun-30 07:41 180 30.0
2015-Jun-30 07:31 022 29.4
2015-Jun-30 07:21 338 0 gusting 1 28.9
2015-Jun-30 07:11 27.8
2015-Jun-30 07:01 022 1 gusting 2 27.2
2015-Jun-30 06:51 022 1 gusting 2 26.7
2015-Jun-30 06:41 068 1 gusting 2 25.6
2015-Jun-30 06:31 022 1 gusting 4 25.0
2015-Jun-30 06:21 24.4
2015-Jun-30 06:11 022 1 gusting 4 23.9
2015-Jun-30 06:01 022 1 gusting 4 23.9
2015-Jun-30 05:51 045 1 gusting 5 23.3
2015-Jun-30 05:41 045 1 gusting 2 23.3
2015-Jun-30 05:31 22.8
2015-Jun-30 05:21 045 1 gusting 4 22.8
2015-Jun-30 05:11 022 1 gusting 2 22.2
2015-Jun-30 05:01 338 1 gusting 2 22.2
2015-Jun-30 04:51 338 1 gusting 2 22.2
2015-Jun-30 04:41 022 1 gusting 2 22.2
2015-Jun-30 04:31 068 1 gusting 5 22.2
2015-Jun-30 04:21 22.2
2015-Jun-30 04:11 022 1 gusting 4 22.2
2015-Jun-30 04:01 022 1 gusting 4 22.2
2015-Jun-30 03:51 022 1 gusting 2 22.2
2015-Jun-30 03:41 045 1 gusting 4 22.2
2015-Jun-30 03:31 022 0 gusting 2 22.2
2015-Jun-30 03:21 338 0 gusting 1 22.2
2015-Jun-30 03:11 045 22.2
2015-Jun-30 03:01 068 22.2
2015-Jun-30 02:51 090 22.2
2015-Jun-30 02:41 225 0 gusting 1 22.2
2015-Jun-30 02:31 248 0 gusting 1 22.8
2015-Jun-30 02:21 338 0 gusting 1 22.8
2015-Jun-30 02:11 338 0 gusting 1 22.8
2015-Jun-30 02:01 292 0 gusting 1 22.8
2015-Jun-30 01:51 22.8
2015-Jun-30 01:41 338 22.8
2015-Jun-30 01:31 270 0 gusting 2 22.8
2015-Jun-30 01:21 225 22.8
2015-Jun-30 01:11 068 22.8
2015-Jun-30 01:01 292 0 gusting 0 22.8
2015-Jun-30 00:51 270 0 gusting 1 22.8
2015-Jun-30 00:41 135 22.8
2015-Jun-30 00:31 225 0 gusting 1 22.8
2015-Jun-30 00:21 225 22.8
2015-Jun-30 00:11 248 22.8
2015-Jun-30 00:01 248 23.3
2015-Jun-29 23:51 202 23.3
2015-Jun-29 23:41 270 23.3
2015-Jun-29 23:31 202 23.3
2015-Jun-29 23:21 180 23.3
2015-Jun-29 23:11 270 23.3
2015-Jun-29 23:01 248 0 gusting 1 23.3
2015-Jun-29 22:51 270 0 gusting 0 23.3
2015-Jun-29 22:41 225 23.3
2015-Jun-29 22:31 270 23.3
2015-Jun-29 22:21 248 23.3
2015-Jun-29 22:11 045 23.3
2015-Jun-29 22:01 045 23.3
2015-Jun-29 21:51 090 23.3
2015-Jun-29 21:41 068 23.9
2015-Jun-29 21:31 022 23.9
2015-Jun-29 21:21 180 23.9
2015-Jun-29 21:11 112 24.4
2015-Jun-29 21:01 135 24.4
2015-Jun-29 20:51 24.4
2015-Jun-29 20:41 24.4
2015-Jun-29 20:31 292 25.0
2015-Jun-29 20:21 225 25.0
2015-Jun-29 20:11 112 25.0
2015-Jun-29 20:01 135 25.0
2015-Jun-29 19:51 202 25.6
2015-Jun-29 19:41 090 25.6
2015-Jun-29 19:31 158 0 gusting 0 25.6
2015-Jun-29 19:21 112 0 gusting 1 26.1
2015-Jun-29 19:11 135 0 gusting 1 26.1
2015-Jun-29 19:01 135 0 gusting 4 26.1
2015-Jun-29 18:51 022 0 gusting 1 26.1
2015-Jun-29 18:41 112 0 gusting 1 26.7
2015-Jun-29 18:31 202 1 gusting 1 26.7
2015-Jun-29 18:21 112 0 gusting 1 27.2
2015-Jun-29 18:11 135 1 gusting 2 27.2
2015-Jun-29 18:01 135 1 gusting 2 27.8
2015-Jun-29 17:51 112 1 gusting 2 28.3
2015-Jun-29 17:41 090 1 gusting 5 28.9
2015-Jun-29 17:31 112 1 gusting 4 28.9
2015-Jun-29 17:21 112 1 gusting 5 28.9
2015-Jun-29 17:11 112 2 gusting 4 29.4
2015-Jun-29 17:01 112 1 gusting 4 29.4
2015-Jun-29 16:51 112 1 gusting 4 28.9
2015-Jun-29 16:41 090 1 gusting 4 28.9
2015-Jun-29 16:31 135 1 gusting 4 29.4
2015-Jun-29 16:21 135 1 gusting 4 28.3
2015-Jun-29 16:11 315 1 gusting 5 28.9
2015-Jun-29 16:01 112 1 gusting 2 30.0
2015-Jun-29 15:51 112 2 gusting 6 30.0
2015-Jun-29 15:41 135 4 gusting 6 30.0
2015-Jun-29 15:31 090 4 gusting 7 30.6
2015-Jun-29 15:21 112 2 gusting 6 31.1
2015-Jun-29 15:11 090 2 gusting 6 31.1
2015-Jun-29 15:01 135 2 gusting 6 31.7
2015-Jun-29 14:51 112 4 gusting 6 32.2
2015-Jun-29 14:41 180 4 gusting 5 32.2
2015-Jun-29 14:31 112 4 gusting 6 32.2
2015-Jun-29 14:21 112 4 gusting 6 32.8
2015-Jun-29 14:11 112 4 gusting 6 32.8
2015-Jun-29 14:01 180 4 gusting 6 32.8
2015-Jun-29 13:51 068 4 gusting 7 33.3
2015-Jun-29 13:41 202 4 gusting 6 33.3
2015-Jun-29 13:31 180 4 gusting 6 33.3
2015-Jun-29 13:21 090 4 gusting 7 33.3
2015-Jun-29 13:11 158 2 gusting 5 33.3
2015-Jun-29 13:01 202 2 gusting 5 33.9
2015-Jun-29 12:51 112 4 gusting 6 33.3
2015-Jun-29 12:41 112 4 gusting 6 33.9
2015-Jun-29 12:31 135 4 gusting 6 33.9
2015-Jun-29 12:21 180 2 gusting 6 33.9
2015-Jun-29 12:11 180 4 gusting 6 33.3
2015-Jun-29 12:01 158 4 gusting 5 33.3
2015-Jun-29 11:51 180 2 gusting 6 33.3
2015-Jun-29 11:41 135 4 gusting 6 32.8
2015-Jun-29 11:31 045 2 gusting 5 33.3
2015-Jun-29 11:21 135 4 gusting 8 32.8
2015-Jun-29 11:11 135 4 gusting 7 32.8
2015-Jun-29 11:01 135 4 gusting 6 32.8
2015-Jun-29 10:51 112 4 gusting 7 32.8
2015-Jun-29 10:41 090 4 gusting 6 32.8
2015-Jun-29 10:31 045 4 gusting 6 32.2
2015-Jun-29 10:21 112 2 gusting 6 32.2
2015-Jun-29 10:11 135 3 gusting 5 32.2
2015-Jun-29 10:01 135 4 gusting 5 31.7
2015-Jun-29 09:51 180 4 gusting 6 31.7
2015-Jun-29 09:41 135 4 gusting 6 32.2
2015-Jun-29 09:31 112 4 gusting 7 32.2
2015-Jun-29 09:21 090 4 gusting 7 32.2
2015-Jun-29 09:11 158 2 gusting 6 32.2
2015-Jun-29 09:01 180 2 gusting 6 31.7
2015-Jun-29 08:51 158 2 gusting 5 31.7
2015-Jun-29 08:41 180 2 gusting 6 31.7
2015-Jun-29 08:31 135 1 gusting 6 31.1
2015-Jun-29 08:21 090 1 gusting 2 30.6
2015-Jun-29 08:11 248 0 gusting 2 30.6
2015-Jun-29 08:01 135 1 gusting 4 30.0
2015-Jun-29 07:51 315 1 gusting 2 29.4
2015-Jun-29 07:41 248 0 gusting 2 28.9
2015-Jun-29 07:31 270 0 gusting 2 28.3
2015-Jun-29 07:21 270 0 gusting 4 27.8
2015-Jun-29 07:11 338 27.2
2015-Jun-29 07:01 090 0 gusting 1 26.7
2015-Jun-29 06:51 25.6
2015-Jun-29 06:41 112 24.4
2015-Jun-29 06:31 045 0 gusting 1 23.3
2015-Jun-29 06:21 022 0 gusting 1 22.8
2015-Jun-29 06:11 090 22.2
2015-Jun-29 06:01 068 0 gusting 1 21.7
2015-Jun-29 05:51 090 0 gusting 1 21.1
2015-Jun-29 05:41 090 0 gusting 1 21.1
2015-Jun-29 05:31 022 20.6
2015-Jun-29 05:21 090 20.6
2015-Jun-29 05:11 158 20.6
2015-Jun-29 05:01 112 20.6
2015-Jun-29 04:51 202 20.6
2015-Jun-29 04:41 225 0 gusting 1 20.6
2015-Jun-29 04:31 225 20.0
2015-Jun-29 04:21 022 20.0
2015-Jun-29 04:11 068 20.0
2015-Jun-29 04:01 045 20.6
2015-Jun-29 03:51 158 20.6
2015-Jun-29 03:41 202 20.6
2015-Jun-29 03:31 270 20.6
2015-Jun-29 03:21 022 20.6
2015-Jun-29 03:11 202 20.6
2015-Jun-29 03:01 180 21.1
2015-Jun-29 02:51 135 20.6
2015-Jun-29 02:41 270 21.1
2015-Jun-29 02:31 135 0 gusting 1 21.1
2015-Jun-29 02:21 180 21.1
2015-Jun-29 02:11 180 21.1
2015-Jun-29 02:01 022 21.1
2015-Jun-29 01:51 270 0 gusting 1 21.1
2015-Jun-29 01:41 270 0 gusting 1 21.1
2015-Jun-29 01:31 21.1
2015-Jun-29 01:21 022 21.1
2015-Jun-29 01:11 022 21.1
2015-Jun-29 01:01 21.7
2015-Jun-29 00:51 135 21.7
2015-Jun-29 00:41 068 21.7
2015-Jun-29 00:31 135 21.7
2015-Jun-29 00:21 022 21.7
2015-Jun-29 00:11 112 22.2
2015-Jun-29 00:01 270 22.2
2015-Jun-28 23:51 292 22.2
2015-Jun-28 23:41 338 22.2
2015-Jun-28 23:31 068 22.2
2015-Jun-28 23:21 022 22.2
2015-Jun-28 23:11 045 22.2
2015-Jun-28 23:01 225 22.8
2015-Jun-28 22:51 180 22.8
2015-Jun-28 22:41 112 22.8
2015-Jun-28 22:31 022 22.8
2015-Jun-28 22:21 045 22.8
2015-Jun-28 22:11 112 23.3
2015-Jun-28 22:01 158 23.3
2015-Jun-28 21:51 248 23.3
2015-Jun-28 21:41 022 23.3
2015-Jun-28 21:31 022 23.3
2015-Jun-28 21:21 135 23.3
2015-Jun-28 21:11 022 23.9
2015-Jun-28 21:01 068 23.9
2015-Jun-28 20:51 022 23.9
2015-Jun-28 20:41 022 24.4
2015-Jun-28 20:31 090 24.4
2015-Jun-28 20:21 090 0 gusting 1 24.4
2015-Jun-28 20:11 248 0 gusting 1 24.4
2015-Jun-28 20:01 180 24.4
2015-Jun-28 19:51 158 25.0
2015-Jun-28 19:41 090 0 gusting 1 25.0
2015-Jun-28 19:31 135 0 gusting 1 25.0
2015-Jun-28 19:21 090 0 gusting 1 25.6
2015-Jun-28 19:11 112 1 gusting 2 25.6
2015-Jun-28 19:01 158 1 gusting 2 25.6
2015-Jun-28 18:51 112 0 gusting 2 26.1
2015-Jun-28 18:41 135 1 gusting 4 26.1
2015-Jun-28 18:31 225 1 gusting 4 26.7
2015-Jun-28 18:21 135 1 gusting 4 26.7
2015-Jun-28 18:11 135 1 gusting 4 27.2
2015-Jun-28 18:01 090 1 gusting 4 27.8
2015-Jun-28 17:51 135 1 gusting 4 28.3
2015-Jun-28 17:41 202 1 gusting 4 28.9
2015-Jun-28 17:31 112 1 gusting 2 28.9
2015-Jun-28 17:21 202 2 gusting 5 29.4
2015-Jun-28 17:11 135 2 gusting 5 29.4
2015-Jun-28 17:01 112 1 gusting 4 29.4
2015-Jun-28 16:51 202 2 gusting 4 29.4
2015-Jun-28 16:41 135 2 gusting 4 30.0
2015-Jun-28 16:31 202 2 gusting 6 30.0
2015-Jun-28 16:21 158 2 gusting 4 30.0
2015-Jun-28 16:11 090 2 gusting 6 30.6
2015-Jun-28 16:01 135 2 gusting 6 30.6
2015-Jun-28 15:51 135 2 gusting 6 30.6
2015-Jun-28 15:41 090 2 gusting 6 31.1
2015-Jun-28 15:31 158 2 gusting 5 31.7
2015-Jun-28 15:21 112 2 gusting 6 31.7
2015-Jun-28 15:11 158 4 gusting 6 31.7
2015-Jun-28 15:01 090 2 gusting 6 31.7
2015-Jun-28 14:51 225 2 gusting 6 32.2
2015-Jun-28 14:41 135 4 gusting 6 32.2
2015-Jun-28 14:31 225 2 gusting 4 32.8
2015-Jun-28 14:21 135 2 gusting 6 32.8
2015-Jun-28 14:11 112 4 gusting 6 32.8
2015-Jun-28 14:01 045 2 gusting 6 32.8